This demonstration page uses our WeatherBlox Daily Observations layout. Learn more.

Left ArrowRight Arrow

39.12711, -84.51439

Hourly Observations for August 4, 2016

Temp ( °F °C ) Dew Point ( °F °C ) Humidity (%) Winds ( mph kmh ) Pressure ( in mb ) Visibility ( mi km ) Precip ( " mm )
12:53 am 00:53 Clear with Mist and Fog 73 22.8 73 22.8 100 100 Calm 29.99 1016 6 10 0.00 0.00
1:53 am 01:53 Mostly Clear with Mist and Fog 71 21.7 71 21.7 100 100 Calm 29.99 1016 5 8 0.00 0.00
2:53 am 02:53 Clear with Mist and Fog 72 22.2 72 22.2 100 100 ENE 3 6 29.98 1015 5 8 0.00 0.00
3:31 am 03:31 Mostly Clear with Mist and Fog 70 21.1 70 21.1 100 100 Calm 29.97 1015 2 3 0.00 0.00
3:41 am 03:41 Mostly Cloudy with Mist and Fog 71 21.7 71 21.7 100 100 NE 3 6 29.97 1015 4 6 0.00 0.00
3:53 am 03:53 Mostly Cloudy with Mist and Fog 71 21.7 71 21.7 100 100 Calm 29.98 1015 3 5 0.00 0.00
4:53 am 04:53 Mostly Clear with Mist and Fog 71 21.7 71 21.7 100 100 Calm 29.97 1015 4 6 0.00 0.00
5:53 am 05:53 Clear with Mist and Fog 71 21.7 71 21.7 100 100 Calm 29.98 1015 4 6 0.00 0.00
6:53 am 06:53 Sunny with Mist and Fog 71 21.7 71 21.7 100 100 NE 3 6 29.99 1016 6 10 0.00 0.00
7:53 am 07:53 Mostly Cloudy with Mist and Fog 73 22.8 73 22.8 100 100 NE 6 9 30.00 1016 4 6 0.00 0.00
8:53 am 08:53 Sunny 75 23.9 73 22.8 94 94 Calm 30.01 1016 8 13 0.00 0.00
9:53 am 09:53 Mostly Sunny 79 26.1 74 23.3 85 85 Calm 30.01 1016 9 14 0.00 0.00
10:53 am 10:53 Mostly Sunny 83 28.3 75 23.9 77 77 Calm 30.00 1016 10 16 0.00 0.00
11:53 am 11:53 Sunny 86 30 73 22.8 65 65 E 3 6 30.01 1016 10 16 0.00 0.00
12:53 pm 12:53 Partly Cloudy 86 30 71 21.7 61 61 Calm 30.00 1016 10 16 0.00 0.00
1:53 pm 13:53 Partly Cloudy 87 30.6 75 23.9 67 67 S 6 9 29.97 1015 10 16 0.00 0.00
2:53 pm 14:53 Mostly Cloudy 87 30.6 73 22.8 63 63 S 5 7 29.95 1014 10 16 0.00 0.00
3:53 pm 15:53 Mostly Cloudy 87 30.6 73 22.8 63 63 E 3 6 29.94 1014 10 16 0.00 0.00
4:53 pm 16:53 Partly Cloudy 86 30 72 22.2 63 63 ESE 5 7 29.93 1014 10 16 0.00 0.00
5:53 pm 17:53 Sunny 87 30.6 71 21.7 59 59 ESE 7 11 29.93 1014 10 16 0.00 0.00
6:53 pm 18:53 Partly Cloudy 86 30 70 21.1 59 59 Calm 29.92 1013 10 16 0.00 0.00
7:53 pm 19:53 Mostly Sunny 83 28.3 76 24.4 79 79 Calm 29.92 1013 10 16 0.00 0.00
8:53 pm 20:53 Clear 78 25.6 74 23.3 87 87 Calm 29.92 1013 10 16 0.00 0.00
9:53 pm 21:53 Clear 76 24.4 73 22.8 91 91 Calm 29.92 1013 10 16 0.00 0.00
10:53 pm 22:53 Clear 74 23.3 73 22.8 97 97 Calm 29.93 1013 9 14 0.00 0.00
11:53 pm 23:53 Clear 74 23.3 73 22.8 97 97 Calm 29.94 1014 9 14 0.00 0.00

Powered by Vaisala Xweather